This demonstration page uses our WeatherBlox Daily Observations layout. Learn more.

Left ArrowRight Arrow

53.62937, 11.41316

Hourly Observations for May 28, 2021

Temp ( °F °C ) Dew Point ( °F °C ) Humidity (%) Winds ( mph kmh ) Pressure ( in mb ) Visibility ( mi km ) Precip ( " mm )
7:20 am 07:20 Mostly Sunny 48 9 46 8 94 94 SSW 5 7 30.15 1021 7 11 N/A
7:50 am 07:50 Mostly Sunny 50 10 45 7 82 82 WSW 5 7 30.15 1021 7 11 N/A
8:20 am 08:20 Mostly Sunny 52 11 46 8 82 82 WSW 6 9 30.15 1021 7 11 N/A
8:50 am 08:50 Partly Cloudy 52 11 45 7 77 77 WSW 6 9 30.15 1021 30 48 N/A
9:20 am 09:20 Partly Cloudy 52 11 46 8 82 82 WSW 8 13 30.18 1022 30 48 N/A
9:50 am 09:50 Partly Cloudy 54 12 46 8 77 77 WSW 8 13 30.18 1022 30 48 N/A
10:20 am 10:20 Mostly Cloudy 52 11 46 8 82 82 SW 9 15 30.18 1022 30 48 N/A
10:50 am 10:50 Mostly Cloudy 52 11 46 8 82 82 SW 8 13 30.18 1022 30 48 N/A
11:20 am 11:20 Mostly Cloudy 52 11 45 7 77 77 WSW 7 11 30.18 1022 30 48 N/A
11:50 am 11:50 Mostly Cloudy 54 12 46 8 77 77 VRB 6 9 30.18 1022 30 48 N/A
12:20 pm 12:20 Mostly Cloudy 54 12 46 8 77 77 VRB 6 9 30.18 1022 30 48 N/A
12:50 pm 12:50 Mostly Cloudy 55 13 46 8 72 72 VRB 5 7 30.18 1022 30 48 N/A
1:20 pm 13:20 Partly Cloudy 55 13 46 8 72 72 VRB 3 6 30.18 1022 30 48 N/A
1:50 pm 13:50 Partly Cloudy 57 14 46 8 67 67 WSW 6 9 30.18 1022 30 48 N/A
2:20 pm 14:20 Partly Cloudy 59 15 48 9 68 68 WSW 7 11 30.18 1022 30 48 N/A
2:50 pm 14:50 Partly Cloudy with Showers Nearby 61 16 48 9 63 63 WSW 8 13 30.18 1022 30 48 N/A
3:20 pm 15:20 Partly Cloudy with Nearby Thunderstorms 59 15 50 10 72 72 SW 7 11 30.15 1021 30 48 N/A
3:50 pm 15:50 Partly Cloudy with Thunderstorms 57 14 46 8 67 67 VRB 8 13 30.15 1021 30 48 N/A
4:20 pm 16:20 Partly Cloudy with Thunderstorms 54 12 45 7 72 72 WSW 8 13 30.18 1022 30 48 N/A
4:50 pm 16:50 Partly Cloudy with Showers Nearby 52 11 46 8 82 82 S 3 6 30.18 1022 30 48 N/A
5:20 pm 17:20 Mostly Cloudy with Thunderstorms 50 10 48 9 94 94 VRB 1 2 30.18 1022 30 48 N/A
5:50 pm 17:50 Mostly Cloudy with Thunderstorms 48 9 45 7 87 87 WSW 8 13 30.18 1022 2 3 N/A
6:20 pm 18:20 Mostly Cloudy with Light Rain 50 10 45 7 82 82 VRB 5 7 30.18 1022 5 8 N/A
6:50 pm 18:50 Mostly Cloudy with Showers Nearby 52 11 48 9 88 88 VRB 5 7 30.18 1022 30 48 N/A
7:20 pm 19:20 Mostly Cloudy 52 11 46 8 82 82 S 5 7 30.18 1022 30 48 N/A
7:50 pm 19:50 Mostly Cloudy 52 11 48 9 88 88 SW 6 9 30.18 1022 30 48 N/A
8:20 pm 20:20 Mostly Cloudy 52 11 48 9 88 88 SSW 8 13 30.18 1022 30 48 N/A
8:50 pm 20:50 Partly Cloudy 50 10 48 9 94 94 VRB 2 4 30.18 1022 30 48 N/A
9:20 pm 21:20 Mostly Sunny 52 11 48 9 88 88 WSW 3 6 30.18 1022 30 48 N/A
9:50 pm 21:50 Mostly Clear 50 10 46 8 88 88 WSW 3 6 30.21 1023 7 11 N/A

Powered by AerisWeather